Regional Weather Roundup
Issued by NWS

Home | Current Version | Previous Version | Text Only | Print | Product List | Glossary Off
Versions: 1 2 3 4 5 6 7 8 9 10 11 12 13 14 15 16 17 18 19 20 21 22 23 24 25 26 27 28 29 30 31 32 33 34 35 36 37 38 39 40 41 42 43 44 45 46 47 48 49 50

000
ASUS43 KLSX 292159
RWRMO

WEATHER SUMMARY FOR MISSOURI
NATIONAL WEATHER SERVICE SPRINGFIELD MO
500 PM CDT FRI AUG 29 2014

NOTE: "FAIR" INDICATES FEW OR NO CLOUDS BELOW 12,000 FEET WITH NO
       SIGNIFICANT WEATHER AND/OR OBSTRUCTIONS TO VISIBILITY.
       CURRENT SKY AND/OR WEATHER CONDITIONS ARE NOT AVAILABLE FOR
       CHILLICOTHE AND FARMINGTON.

MOZ001>031-035>038-043-044-053-054-292300-
...NORTHERN AND WESTERN MISSOURI...

CITY           SKY/WX    TMP DP  RH WIND       PRES   REMARKS
KANSAS CTY INT MOSUNNY   82  68  62 S13       29.81F
KANSAS C DTWN  PTSUNNY   85  67  54 S13       29.81S
LEE`S SUMMIT   MOSUNNY   80  66  62 VRB6      29.84R
ST JOSEPH      MOSUNNY   80  70  71 S7        29.79F

$$
MOZ066>068-077>081-088>096-101>105-292300-
...SOUTHWEST MISSOURI...

CITY           SKY/WX    TMP DP  RH WIND       PRES   REMARKS
SPRINGFIELD    CLOUDY    85  62  46 W12       29.88S
JOPLIN         PTSUNNY   88  62  41 SW12G20   29.87S

$$
MOZ032>034-039>042-045>050-055>058-069>072-292300-
...CENTRAL MISSOURI...

CITY           SKY/WX    TMP DP  RH WIND       PRES   REMARKS
COLUMBIA       PTSUNNY   79  73  82 S12       29.86S
JEFFERSON CITY CLOUDY    78  72  81 CALM      29.85F
ROLLA          CLOUDY    77  69  76 SW3       29.87S
SEDALIA        MOSUNNY   82  67  60 SW9G18    29.85F
OSAGE BEACH    PTSUNNY   79  70  73 S6        29.86F

$$
MOZ051-052-059>065-292300-
...EAST CENTRAL MISSOURI...

CITY           SKY/WX    TMP DP  RH WIND       PRES   REMARKS
ST LOUIS INTL  MOSUNNY   91  64  40 SE17G25   29.85S HX  92
SPIRIT OF STL  PTSUNNY   89  66  46 S9        29.83S HX  91
ST CHARLES     MOSUNNY   89  66  46 S13       29.83S HX  91

$$
MOZ072>076-082>087-097>100-106>115-292300-
...SOUTH CENTRAL AND SOUTHEAST MISSOURI...

CITY           SKY/WX    TMP DP  RH WIND       PRES   REMARKS
CAPE GIRARDEAU MOSUNNY   86  68  54 S9        29.90R
FARMINGTON     CLOUDY    82  64  54 S15G28    29.93R
POPLAR BLUFF   PTSUNNY   85  69  58 SE13G21   29.90S
WEST PLAINS    LGT RAIN  73  69  87 S6        29.95R

$$


USA.gov is the U.S. government's official web portal to all federal, state and local government web resources and services.